ワイズ-レモン彗星

453P/WISE-Lemmon (2010)

English version
Home page
Updated on February 8, 2023

---------------------------------------------------------------------

・ プロフィール

符号 453P/2010 BN109
発見日 2010年1月28日
発見光度
発見者 Wide Field Infrared Survey Explorer (NASA)

・ 軌道要素

                    Epoch = 2010 June 13.0 TT
     T = 2010 June  9.86156 TT        Peri. =  70.56284
     e = 0.5824017                    Node  =  43.10543 2000.0
     q = 2.2708891 AU                 Incl. =  27.07837
       a =  5.4379746 AU   n = 0.07772278   P =  12.68 years

・ 光度変化

        m1 = 13.5 + 5 logΔ + 10.0 log r

---------------------------------------------------------------------

軌道要素は、CBET 5193に掲載されたものです。
光度グラフはComet for Windowsで作成したものです。

---------------------------------------------------------------------

Copyright(C) Seiichi Yoshida (comet@aerith.net). All rights reserved.